Home   Weather   Kings County   Past weeks

Flag for Canada Past Weather in Kings County, Nova Scotia, Canada — Yesterday and Last 2 Weeks

Now
34 °F

Chilly.


Feels Like: 30 °F
Forecast: 38 / 51 °F
Wind: 5 mph from Southwest

Location: Kentville

Current Time: Apr 24, 2017 at 2:33:57 am

Latest Report: Apr 24, 2017 at 1:00 am


Visibility: N/A

Pressure: 30.07 "Hg

Humidity: 90%

Dew Point: 31 °F

Location of Kings CountyLocation

Past Weather in Kings County — Graph

°F

Kings County Temperature Yesterday

Maximum temperature yesterday: 43 °F (at 4:00 pm)
Minimum temperature yesterday: 33 °F (at 11:00 pm)
Average temperature yesterday: 38 °F

High & Low Weather Summary for the Past Weeks

 TemperatureHumidityPressure
High65 °F (Apr 11, 4:00 pm)99% (Apr 23, 5:00 am)30.68 "Hg (Apr 23, 5:00 am)
Low21 °F (Apr 19, 7:00 am)20% (Apr 15, 8:00 pm)29.58 "Hg (Apr 17, 2:00 am)
Average43 °F67%30.12 "Hg
* Reported Apr 9 2:00 am — Apr 24 1:00 am, Kings County, Weather by CustomWeather, © 2017

Note: Actual official high and low records may vary slightly from our data, if they occured in-between our weather recording intervals... More about our weather records

Advertising

Kings County Weather History for the Previous 24 Hours

Scroll right to see more
 ConditionsComfort  
Time TempWeatherWind HumidityBarometerVisibility
1:00 am
Mon, Apr 24
34 °FChilly.5 mph90%30.07 "HgN/A
12:00 am37 °FChilly.5 mph85%30.06 "HgN/A
11:00 pm
Sun, Apr 23
33 °FChilly.3 mph96%30.05 "HgN/A
10:00 pm38 °FChilly.3 mph83%30.03 "HgN/A
9:00 pm42 °FQuite cool.2 mph74%30.02 "HgN/A
8:00 pm43 °FQuite cool.6 mph69%30.02 "HgN/A
7:00 pm43 °FQuite cool.5 mph70%30.01 "HgN/A
6:00 pm43 °FQuite cool.7 mph70%30.01 "HgN/A
5:00 pm43 °FQuite cool.8 mph69%29.99 "HgN/A
4:00 pm43 °FQuite cool.9 mph69%29.98 "HgN/A
3:00 pm42 °FQuite cool.7 mph69%29.98 "HgN/A
2:00 pm41 °FQuite cool.6 mph77%29.98 "HgN/A
1:00 pm41 °FQuite cool.7 mph74%29.96 "HgN/A
12:00 pm41 °FQuite cool.7 mph78%29.96 "HgN/A
11:00 am38 °FChilly.8 mph89%29.97 "HgN/A
10:00 am37 °FChilly.7 mph93%29.95 "HgN/A
9:00 am36 °FChilly.5 mph96%29.93 "HgN/A
8:00 am35 °FChilly.3 mph98%29.93 "HgN/A
7:00 am34 °FChilly.3 mph99%29.91 "HgN/A
6:00 am35 °FChilly.3 mph99%29.89 "HgN/A
5:00 am34 °FChilly.3 mph99%29.88 "HgN/A
4:00 am34 °FChilly.3 mph98%29.87 "HgN/A
3:00 am35 °FChilly.3 mph98%29.86 "HgN/A
2:00 am35 °FChilly.3 mph97%29.88 "HgN/A
Weather by CustomWeather, © 2017

See weather overviewHow to use our weather pages